Regional Weather Roundup
Issued by NWS

Home | Current Version | Previous Version | Text Only | Print | Product List | Glossary Off
Versions: 1 2 3 4 5 6 7 8 9 10 11 12 13 14 15 16 17 18 19 20 21 22 23 24 25 26 27 28 29 30 31 32 33 34 35 36 37 38 39 40 41 42 43 44 45 46 47 48 49 50

000
ASUS45 KABQ 280701
RWRNM
WEATHER ROUNDUP FOR NEW MEXICO
NATIONAL WEATHER SERVICE ALBUQUERQUE NM
100 AM MDT TUE APR 28 2015

NOTE: "FAIR" MEANS FEW OR NO CLOUDS BELOW 12,000 FEET AGL WITH NO
       SIGNIFICANT WEATHER OR OBSTRUCTIONS TO VISION.

      THIS PRODUCT IS RELEASED AS TWO VERSIONS.  ONE VERSION NEAR
      THE TOP OF THE HOUR CONTAINING PRELIMINARY DATA FROM ALBUQUERQUE
      AND OTHER STATIONS.  A FINAL VERSION WITH ADDITIONAL DATA IS
      ISSUED ABOUT 10 MINUTES AFTER THE HOUR.

NMZ501-503-504-510>518-280800-
NORTHWEST PLATEAU/NORTHCENTRAL MOUNTAINS

CITY           SKY/WX    TMP DP  RH WIND       PRES   REMARKS
FARMINGTON     LGT RAIN  49  44  83 CALM      30.19R
SANTA FE       PTCLDY    39  31  72 NW3       30.26R
TAOS           PTCLDY    34  21  60 NW6       30.29S WCI  29
ANGEL FIRE     CLOUDY    32  27  81 NE15      30.33S WCI  22

$$
NMZ402-403-502-505>509-280800-
WESTCENTRAL MOUNTAINS/SOUTHWEST MOUNTAINS

CITY           SKY/WX    TMP DP  RH WIND       PRES   REMARKS
GALLUP         PTCLDY    44  37  76 NE3       30.22R
GRANTS         CLOUDY    43  38  83 SE9       30.27R
SILVER CITY      N/A     46  34  61 E5        30.21S

$$
NMZ407-409-411-412-280800-
SOUTHERN DESERTS

CITY           SKY/WX    TMP DP  RH WIND       PRES   REMARKS
DEMING         CLEAR     50  32  50 NE13      30.19R
HOLLOMAN AFB   MOCLDY    53  30  41 E16       30.18R
ALAMOGORDO     MOCLDY    54  28  37 N12       30.19R
T OR C         PTCLDY    48  33  56 N15       30.24R

$$
NMZ519>523-280800-
CENTRAL VALLEYS/CENTRAL HIGHLANDS

CITY           SKY/WX    TMP DP  RH WIND       PRES   REMARKS
ALBUQUERQUE    MOCLDY    48  32  53 SE12      30.25S
DOUBLE EAGLE   CLOUDY    42  38  87 S8        30.26R
MORIARTY ARPT  CLOUDY    42  31  62 CALM      30.29S
CLINES CORNERS CLOUDY    37  31  78 NE20G26   30.24F WCI  27
BELEN          LGT RAIN  46  39  76 SW9       30.26R
SOCORRO        NOT AVBL

$$
NMZ524>526-539-540-280800-
SOUTHCENTRAL MOUNTAINS

CITY           SKY/WX    TMP DP  RH WIND       PRES   REMARKS
RUIDOSO        NOT AVBL

$$
NMZ527>531-280800-
NORTHEAST HIGHLANDS/NORTHEAST PLAINS

CITY           SKY/WX    TMP DP  RH WIND       PRES   REMARKS
LAS VEGAS      CLOUDY    39  31  72 N16       30.29R WCI  30
RATON          CLOUDY    41  29  62 NE12      30.30R
CLAYTON        MOCLDY    42  34  73 N13       30.25R

$$
NMZ532>537-280800-
EASTCENTRAL PLAINS

CITY           SKY/WX    TMP DP  RH WIND       PRES   REMARKS
TUCUMCARI      CLOUDY    43  37  79 E5        30.24R
CANNON AFB     MOCLDY    39  36  89 NE25      30.19F WCI  28
CLOVIS AIRPORT CLOUDY    39  34  81 N18G24    30.22R WCI  30

$$
NMZ028-029-538-280800-
SOUTHEAST PLAINS

CITY           SKY/WX    TMP DP  RH WIND       PRES   REMARKS
ROSWELL        PTCLDY    45  35  68 NW9       30.24F
ARTESIA        MOCLDY    45  34  65 N15       30.25F
CARLSBAD       MOCLDY    48  33  56 N22G28    30.22F
HOBBS          CLOUDY    43  37  81 N18G26    30.18S


$$



USA.gov is the U.S. government's official web portal to all federal, state and local government web resources and services.